星链-5400 (STARLINK-5400 )

导读

STARLINK-5400是美国SpaceX公司星链星座的组网卫星,于2022年12月28日发射升空。作为星链第一代卫星,它运行在近地轨道,配备相控阵天线与氪离子推进系统,可实现轨道维持与主动避碰,承担为全球提供高速低延迟卫星宽带接入的任务,是星链全球互联网组网的重要组成部分。

基本信息
目录编号:
54861
目录名称:
STARLINK-5400
国际标识:
2022-177AT
轨道中心:
EARTH
卫星名称:
星链-5400
卫星全名:
星链-5400 (STARLINK-5400 )
卫星状态:
在轨 (已飞行1267 天)
发射日期:
2022-12-28 UTC
国别 :
美国 (US)
星等 :
--
轨道信息
数据来源 国际轨道数据
星历时间: 2026-06-17T08:10:39+0800
9小时前
查看轨道信息
半长轴: 6861.155km
偏心率: 0.0001889
轨道倾角: 42.998°
近地点辐角 273.743°
升交点赤经 280.378°
平近点角 86.321°
近地点: 481.721km
远地点: 484.315km
周期: 94.266分钟
每日圈数: 15.275907
详细信息
固有亮度:
5
最大亮度:
2.5
卫星平台:
Starlink v1.5
覆盖范围:
全球
运营商:
太空探索技术公司
运营商所在国:
美国
制造商(研发单位):
太空探索技术公司
制造商所在国:
美国
使用方式:
暂无
卫星简介
星链(Starlink)计划是由太空探索技术公司(SpaceX)提出的一个巨型低轨卫星互联网星座项目,计划在2019年至2024年间在太空搭建由约1.2万颗卫星组成的“星链”网络,其中1584颗将部署在地球上空550千米处的近地轨道,并从2020年开始工作。该卫星仍在工作。
2D轨道图
3D轨道图
轨道高度分析图
轨道倾角分析图
轨道综合分析图
查看轨道综合分析图